Voltar ao catálogo

STARLINK-38173

AtivoComunicaçõesSSO
NORAD 100151·PAYLOAD·🇺🇸 United States

Lançado Jul 25, 2026 de Vandenberg Space Force Base

Loading…

Próximas Passagens (próximas 24 horas)

TLE

AtualizadoSource: Space-Track

Época: Sep 14, 2026, 22:44 UTC

1 A0151U 26171D   26257.94781570 -.00672592  00000-0 -21985-1 0  9996
2 A0151  97.2840 290.4448 0001136 129.2598 230.8746 15.34105529  8044

Acompanhe STARLINK-38173 em tempo real com AllMySat

Download on the App Store